Wind_Speed
13 15 17 17 18 18 13 6 4 4 4 7 8 8 9 5 9 13 6 8 8 8 8 9 10 10 8 8 15 17 14 11 6 2 4 6 12 12 19 26 24 24 24 23 22 19 18 19 20 21 22 22 22 22 21 20 20 20 19 18 16 17 16 15 15 14 14 13 13 13 13 13 13 12 12 12 12 13 13 13 13 13 13 13 13 13 12 12 12 12 12 12 12 13 14 13 12
13 15 16 18 16 11 6 4 5 5 5 7 7 8 10 5 9 11 6 10 6 7 9 7 7 8 9 12 14 15 14 13 11 9 7 14 18 17 22 23 23 24 23 22 21 20 18 19 21 22 22 22 22 21 20 19 20 19 19 18 17 16 16 15 14 14 13 13 13 13 13 13 12 12 12 12 12 13 13 13 12 13 12 12 12 12 12 11 11 11 12 12 12 11 12 13 12
12 13 15 17 12 7 5 5 5 6 7 7 7 10 9 6 8 2 11 8 7 8 8 7 4 5 10 13 11 10 10 11 14 11 9 15 16 18 22 21 24 23 22 21 19 20 19 20 22 22 22 21 21 21 20 19 19 19 19 19 17 16 16 16 14 14 13 13 13 13 13 12 12 11 12 12 12 13 13 12 12 12 12 12 11 11 11 10 10 11 11 11 11 10 11 12 12
11 11 13 13 8 5 6 5 5 7 7 6 7 11 14 11 9 6 12 6 5 5 7 7 4 6 9 11 8 8 9 8 12 13 9 12 16 20 23 23 24 22 21 20 18 19 18 21 23 22 22 21 21 21 20 20 19 19 19 18 17 16 16 16 15 14 13 13 13 12 12 12 11 11 11 11 11 11 12 12 11 11 11 11 11 10 9 9 10 11 11 11 10 10 10 11 11
12 13 13 9 5 4 4 4 5 7 7 7 7 11 15 13 10 5 8 5 5 4 4 6 3 9 10 11 7 5 6 7 10 14 13 14 21 23 24 24 22 21 21 19 19 20 19 22 24 23 22 21 21 21 20 20 19 19 19 19 17 16 16 16 15 14 13 12 12 11 11 10 10 9 9 8 8 8 9 10 10 10 9 9 9 8 8 9 10 10 10 10 10 9 10 10 10
13 14 13 10 5 4 4 5 7 8 9 9 9 12 14 15 11 6 7 8 5 2 2 4 2 10 10 10 9 5 3 7 10 13 18 20 23 24 23 23 22 22 22 20 19 21 21 23 25 23 22 21 21 20 20 20 19 19 19 18 17 17 16 15 14 13 12 11 10 9 9 8 8 8 7 6 6 6 6 7 7 8 8 8 8 6 6 9 9 9 9 9 9 10 10 9 9
11 10 8 8 5 4 6 7 8 8 10 11 12 15 16 19 16 2 6 6 7 1 5 1 1 8 9 9 9 9 7 8 11 13 20 24 24 24 22 22 24 23 22 20 19 20 22 25 25 23 23 21 21 21 20 20 20 19 18 18 17 16 15 14 14 13 12 10 9 8 8 7 7 7 7 6 6 5 5 5 5 6 7 7 6 4 6 8 8 8 9 9 10 10 10 10 9
10 6 4 5 5 4 6 8 10 9 10 13 15 16 18 21 21 8 3 2 8 7 4 3 4 4 8 11 8 10 14 13 16 19 23 25 23 22 22 24 26 24 22 21 20 19 22 25 25 24 23 21 21 20 20 20 20 19 18 17 16 16 15 14 14 12 11 10 9 7 7 7 7 7 7 7 6 6 6 5 5 5 4 4 4 4 7 8 7 8 9 9 10 10 10 10 9
9 7 3 5 6 6 8 9 11 12 13 16 16 16 19 20 15 10 4 4 8 12 10 6 3 6 10 14 10 7 13 16 20 22 23 23 23 22 22 23 25 25 23 23 21 19 20 23 24 24 22 21 21 20 20 20 19 19 17 16 16 16 15 14 13 12 10 9 8 7 6 7 7 7 8 8 8 8 7 6 6 5 4 4 4 5 7 8 7 8 9 9 9 9 10 10 9
7 6 4 5 6 8 9 9 11 12 15 16 18 18 21 16 1 4 4 5 9 13 12 7 2 11 15 13 9 7 12 17 21 22 21 22 22 21 22 22 24 26 25 24 23 20 19 22 23 23 22 22 21 20 20 20 19 18 17 16 16 16 15 13 12 11 9 8 7 6 7 8 8 8 8 9 10 9 8 7 7 6 5 4 5 6 7 8 8 8 8 8 8 8 8 9 9
5 5 5 6 6 9 9 10 11 12 16 15 16 17 21 14 8 4 3 6 10 11 14 9 4 16 15 10 7 9 15 16 19 22 22 22 21 21 22 23 24 25 26 25 23 21 20 21 22 22 22 22 21 21 20 20 19 18 17 16 16 15 14 13 11 10 9 7 7 7 8 8 9 9 9 9 10 9 8 7 7 6 6 5 6 7 7 8 8 7 8 7 7 7 7 8 8
6 6 6 7 7 9 9 12 12 14 17 15 17 15 13 9 6 4 4 6 9 11 14 5 10 15 12 10 7 9 15 15 18 21 22 22 20 21 22 23 23 24 26 26 24 23 22 21 21 21 21 22 21 21 20 19 18 17 16 16 16 15 14 12 11 10 9 8 7 7 8 8 8 8 9 9 9 9 9 8 7 6 6 6 7 8 8 8 8 7 7 7 6 6 6 6 7
7 7 7 9 9 10 11 12 12 14 14 13 16 9 7 5 4 2 4 5 7 13 5 10 15 13 11 9 7 9 12 15 20 21 21 21 20 21 22 22 23 24 25 25 25 24 23 21 19 19 20 21 21 20 19 18 17 16 16 15 15 14 13 12 10 10 9 9 8 8 8 7 7 7 8 8 8 8 8 8 7 6 6 6 8 9 9 9 8 7 6 6 5 5 5 5 5
7 7 7 8 10 12 13 11 11 12 11 14 9 4 3 5 3 2 3 7 8 9 7 21 16 15 13 9 7 7 10 17 21 21 21 20 20 22 22 23 24 24 24 23 25 24 23 21 19 19 19 19 20 19 17 16 16 16 15 15 15 14 13 11 10 10 9 10 10 9 9 8 7 7 7 8 8 8 8 9 8 7 6 6 7 8 9 9 8 6 6 5 5 4 4 4 4
8 6 7 8 10 11 12 12 14 13 10 16 5 6 2 4 2 4 4 6 7 8 9 18 11 12 12 11 9 9 14 20 22 21 22 21 21 22 22 24 24 24 23 23 24 23 22 21 21 20 19 18 18 17 17 16 15 14 14 15 14 14 13 11 10 9 9 10 10 11 11 9 8 6 6 7 6 6 8 8 9 8 7 6 6 7 8 8 7 6 5 5 4 3 3 3 3
7 6 7 8 10 11 12 12 14 13 12 15 4 6 2 4 5 4 3 3 7 10 7 11 8 11 12 12 14 18 21 22 22 22 22 22 22 22 22 23 23 23 23 23 22 22 21 21 21 20 20 19 17 16 16 16 15 14 14 14 14 14 12 10 8 8 10 9 9 10 10 9 8 7 6 6 5 5 7 6 7 8 7 6 5 6 6 6 6 6 5 4 3 2 2 3 3
7 7 8 9 11 12 11 12 12 11 13 12 5 5 3 5 4 4 2 5 10 3 15 14 11 11 11 14 23 27 25 23 22 22 22 21 21 21 20 20 21 21 21 22 22 23 22 21 21 20 20 19 18 17 16 15 16 15 14 13 13 12 10 9 8 8 9 8 8 8 7 7 6 6 5 4 4 4 4 4 5 6 7 7 5 4 5 6 6 5 5 4 2 1 2 3 3
8 7 9 10 11 12 12 13 13 12 17 11 7 3 1 2 3 2 4 6 8 8 19 16 18 15 14 23 30 29 26 25 23 23 21 20 20 19 18 19 20 19 20 21 21 22 22 21 22 21 20 19 19 19 16 15 16 14 13 13 11 11 10 8 8 8 9 8 7 7 7 6 4 3 3 2 2 3 3 2 3 4 5 6 6 5 3 3 5 6 6 4 3 3 3 4 4
9 7 9 10 10 13 13 14 18 17 16 8 7 5 2 2 6 3 4 7 7 11 17 17 21 17 20 25 27 27 25 24 23 22 21 20 19 19 18 19 20 19 19 20 21 21 20 21 22 22 22 21 20 17 16 16 16 14 12 11 10 10 9 8 8 7 7 7 5 4 4 4 6 4 4 5 2 2 4 3 3 3 4 4 4 4 4 3 1 5 6 6 5 5 5 5 6
10 9 8 10 13 14 16 18 21 14 7 7 2 3 1 2 5 6 5 8 11 10 16 16 18 17 18 19 21 24 22 22 22 21 20 20 20 19 18 19 20 19 19 20 22 20 18 20 22 22 22 22 20 17 16 17 16 15 13 11 10 9 9 9 9 6 6 7 6 5 4 6 8 6 6 8 5 2 1 1 2 2 3 3 3 2 2 3 2 2 5 6 7 7 6 4 7
9 10 10 12 14 14 19 21 17 7 4 8 6 4 3 4 7 8 9 9 10 9 18 18 18 20 19 18 19 20 20 20 21 19 18 19 19 19 19 19 19 20 20 20 21 20 19 20 21 21 21 20 18 16 18 18 16 15 14 12 11 11 9 9 9 7 7 7 7 6 6 7 7 6 7 7 5 4 3 1 1 1 1 2 2 1 1 2 2 2 3 3 4 6 8 8 8
8 13 15 16 16 15 16 14 9 4 3 6 8 7 5 8 8 9 12 8 4 4 18 20 20 21 19 19 18 19 19 18 18 16 17 18 19 19 18 19 20 20 20 19 20 20 20 20 19 20 18 18 16 15 17 17 15 15 14 12 11 11 9 7 9 7 6 7 7 6 7 7 7 6 6 5 5 5 4 4 3 2 1 1 1 2 3 5 5 4 5 3 3 4 7 10 9
10 12 15 17 19 17 14 7 1 2 2 4 9 10 8 9 9 9 7 2 9 10 19 20 19 20 20 19 18 18 19 18 15 15 18 19 19 19 18 20 20 20 19 18 19 19 19 18 18 18 16 16 13 13 16 13 13 14 12 11 11 10 9 8 8 7 6 8 8 6 7 7 6 6 5 3 4 4 4 4 4 4 3 2 3 4 4 6 6 6 7 7 6 6 6 9 8
13 12 14 17 19 18 15 8 2 2 6 8 10 10 10 8 9 9 3 12 15 16 17 17 19 19 18 17 17 18 18 18 16 16 19 18 18 20 20 20 19 19 19 20 20 18 18 18 17 16 15 13 11 12 14 11 11 12 10 10 10 9 9 8 8 7 7 8 8 6 6 5 3 4 4 3 2 3 3 2 3 4 2 2 1 3 4 4 5 6 6 7 8 8 7 8 8
16 15 14 14 16 16 13 10 3 5 8 9 11 12 10 8 11 8 6 15 16 16 16 17 17 17 17 16 17 17 17 18 16 17 18 17 18 19 20 20 20 19 20 20 20 19 18 17 15 15 15 11 11 13 12 10 11 11 10 9 9 9 8 8 8 8 8 8 7 6 5 5 4 2 2 2 2 3 1 1 1 2 2 3 2 2 4 4 5 7 6 6 8 8 9 8 7
14 16 15 14 15 13 12 11 8 7 7 8 13 14 11 11 12 5 4 10 16 16 16 17 15 17 16 15 16 16 16 16 16 17 17 18 19 18 19 20 20 20 20 20 19 20 17 15 14 14 14 12 12 12 9 10 10 10 10 7 8 10 7 7 8 7 7 7 6 6 4 5 4 3 3 3 2 2 1 1 1 2 2 2 2 3 2 3 5 6 6 7 8 9 10 10 9
13 17 17 19 16 10 10 13 12 10 9 11 12 14 13 13 13 5 2 6 14 16 16 17 16 16 15 14 15 13 14 16 17 17 16 17 17 18 20 19 20 20 20 18 17 18 16 14 14 13 14 12 11 10 9 11 9 8 8 7 9 10 7 7 7 6 7 6 5 4 3 3 3 4 5 4 3 3 2 2 2 2 1 1 1 2 2 3 5 6 6 7 7 9 10 9 9
15 15 14 20 18 12 12 13 12 10 10 12 12 14 14 14 14 8 9 7 9 12 16 19 16 14 14 14 14 10 10 15 16 14 14 15 16 17 19 19 20 20 19 17 15 16 15 15 14 13 13 12 10 11 11 10 9 8 8 8 10 9 8 9 7 5 5 4 4 3 3 2 2 2 3 2 2 3 3 3 2 3 2 2 1 2 2 4 4 5 6 5 6 7 7 8 8
15 11 9 16 17 15 15 14 13 12 10 12 13 14 13 15 13 11 15 9 7 4 7 16 16 13 14 13 11 6 5 8 8 4 6 9 11 14 15 19 22 19 16 16 17 15 14 14 13 13 13 11 11 12 10 9 8 8 8 8 8 7 7 7 5 4 4 3 3 3 2 2 1 2 3 3 4 4 3 4 3 3 4 3 3 3 4 5 5 5 5 5 6 8 7 8 10
15 12 9 11 13 15 16 14 14 14 11 12 12 10 10 15 13 12 14 11 11 6 1 7 10 7 7 6 7 9 13 14 11 7 7 10 11 12 13 18 20 17 15 17 18 16 15 15 13 12 11 10 11 8 7 7 7 7 6 6 6 5 5 5 5 4 4 3 3 3 2 2 2 3 4 4 6 5 3 4 4 3 4 3 3 4 5 6 7 7 6 6 7 9 8 9 11
13 12 9 8 9 11 16 16 15 14 11 13 13 8 10 12 9 12 10 10 10 7 5 7 7 7 7 9 12 11 12 15 16 19 20 18 18 16 12 14 16 16 18 19 18 16 16 15 12 13 11 12 10 7 8 8 6 6 6 6 6 4 4 3 3 3 3 3 3 2 2 3 3 4 5 5 5 5 4 4 4 3 4 3 3 5 6 7 8 8 8 8 9 9 9 9 10
10 11 10 10 10 10 15 18 18 16 12 15 15 8 7 3 11 12 8 10 12 12 12 13 12 12 10 9 8 9 10 13 21 28 26 20 20 19 14 17 18 19 21 19 17 17 16 14 13 14 14 14 12 9 9 6 5 5 4 5 5 3 3 2 2 3 3 2 2 2 2 4 5 5 6 5 4 6 6 5 6 5 6 6 5 6 7 8 9 10 10 9 9 10 11 11 11
10 11 10 11 12 11 12 16 20 19 14 17 17 11 5 8 15 15 13 15 15 12 11 9 6 8 7 4 5 7 8 9 14 21 24 24 23 20 16 20 21 20 20 18 17 17 16 15 14 15 14 13 12 11 8 5 5 4 4 4 2 2 1 1 0 2 3 2 3 3 4 5 6 7 7 5 4 5 6 7 8 7 6 7 7 8 8 8 9 11 10 9 10 11 11 13 13
9 10 9 11 14 12 12 13 19 21 18 17 17 14 4 12 14 12 11 11 12 8 8 9 6 7 7 5 6 7 8 10 11 16 23 26 27 23 19 22 22 19 18 18 17 16 16 15 14 14 12 9 9 10 9 7 7 4 3 3 4 3 3 4 2 2 3 3 5 6 6 7 8 9 9 8 7 7 7 8 9 8 7 7 7 8 8 8 9 9 9 10 11 11 12 13 14
11 11 10 11 13 14 15 13 15 21 20 17 17 15 5 15 12 9 10 10 11 8 7 8 6 7 8 7 8 9 8 9 10 14 19 21 24 22 23 25 22 18 19 19 16 15 16 15 13 11 9 8 7 8 9 8 7 5 4 6 5 4 6 3 1 3 4 6 9 9 9 11 11 11 11 10 10 9 8 8 9 8 9 9 8 8 8 9 10 9 9 11 11 10 11 12 12
15 14 12 12 12 13 16 15 14 20 19 16 17 14 11 15 11 8 7 8 9 8 8 8 7 8 8 8 8 9 9 8 10 13 14 17 21 23 26 27 23 20 20 18 16 16 16 14 13 11 10 11 10 10 9 8 7 5 5 7 6 6 5 1 2 7 9 11 12 12 13 13 13 13 13 11 11 12 11 11 11 11 10 11 11 10 10 11 11 11 11 11 11 11 11 11 11
17 15 13 15 15 12 16 17 16 19 14 15 17 9 14 14 11 10 7 7 8 10 11 9 10 9 8 10 9 10 10 8 11 14 13 16 20 22 23 23 23 22 19 18 17 16 15 14 14 13 11 11 12 11 10 8 5 3 4 5 7 7 3 0 5 11 11 13 13 13 14 14 13 13 13 11 10 12 12 12 12 12 12 12 13 13 13 13 13 14 14 13 13 13 12 11 13
17 15 13 14 14 12 16 17 16 20 12 13 16 8 15 11 10 9 7 9 10 11 13 12 11 9 8 11 12 11 10 9 11 14 14 16 17 18 18 19 22 22 19 18 18 17 15 14 14 13 11 11 12 11 10 9 5 4 5 5 8 8 4 3 7 10 11 12 13 12 12 13 12 12 13 11 10 12 12 13 13 13 12 13 14 14 14 14 15 15 16 16 15 14 12 13 17
16 13 12 11 13 13 15 17 18 19 10 11 14 12 11 8 9 9 8 9 9 11 12 11 10 9 8 11 12 11 11 11 12 13 15 16 16 16 15 17 19 21 20 18 18 19 16 16 16 14 13 13 13 14 13 10 8 7 8 8 10 7 4 6 8 9 9 10 12 12 11 11 12 12 13 12 12 13 13 13 13 13 13 14 13 13 14 15 16 16 16 17 16 15 13 15 19
14 12 11 10 13 13 11 15 17 17 9 11 9 13 7 5 7 8 9 7 8 10 10 9 8 8 7 9 11 12 14 14 13 13 14 15 16 15 15 15 16 18 19 19 20 18 16 17 18 17 16 15 16 17 16 14 12 11 9 8 7 5 3 6 7 8 8 8 10 11 11 11 12 13 14 13 13 13 12 12 12 12 12 13 13 13 14 16 16 16 16 16 16 15 14 15 16
15 16 13 10 14 18 14 11 12 12 10 12 8 11 4 4 6 7 8 8 7 8 10 9 8 7 4 5 9 12 14 14 15 15 13 14 16 17 17 15 14 16 18 19 18 15 17 19 19 18 18 19 18 17 17 17 15 15 13 7 6 7 5 5 6 6 8 8 9 10 11 12 13 13 14 14 13 13 13 12 12 12 12 13 13 13 14 14 14 15 15 15 16 15 13 14 14
14 17 17 14 13 18 20 13 12 8 8 11 9 4 3 6 8 9 9 9 9 10 12 11 10 10 9 8 8 10 13 14 14 15 13 14 16 17 18 16 16 17 16 16 15 16 20 21 20 20 20 20 18 15 14 14 13 15 14 9 10 8 7 6 6 7 8 8 8 7 8 11 13 12 12 13 13 12 12 12 12 11 12 13 12 11 13 14 13 14 15 14 15 15 14 13 14
10 14 18 19 14 17 22 15 12 8 7 9 10 7 3 7 9 10 11 11 12 11 11 11 10 10 10 7 5 7 12 13 13 14 13 13 16 16 16 17 18 18 17 16 18 20 21 20 20 21 21 20 17 14 13 11 11 12 12 9 7 8 9 7 6 7 7 7 7 7 6 8 11 13 13 13 13 12 12 12 12 11 11 12 12 12 13 14 13 13 14 14 14 14 14 13 14
9 12 17 20 18 18 19 14 11 8 7 9 13 11 6 6 8 11 13 12 13 12 10 11 10 9 9 8 5 6 11 13 12 13 13 13 15 17 17 18 18 19 18 18 19 21 21 21 21 20 20 19 17 15 12 10 9 10 10 8 8 9 8 7 5 6 7 7 8 9 9 9 10 12 12 12 12 12 12 12 12 12 12 13 13 14 14 14 14 14 15 15 14 13 14 13 13
9 12 17 18 17 16 14 12 11 9 8 9 12 12 7 5 9 12 13 13 13 13 14 14 10 8 8 8 5 7 11 13 12 13 13 13 16 18 18 18 19 19 19 19 21 22 23 24 22 20 19 17 16 15 13 11 9 9 9 8 8 7 6 7 7 6 7 8 9 10 10 10 10 11 11 12 12 12 12 13 13 13 14 14 14 14 15 15 15 16 16 16 16 15 14 14 15
11 13 16 15 16 14 13 11 11 9 8 9 11 13 8 6 8 12 10 11 12 11 12 12 10 9 9 9 10 10 12 12 12 12 12 14 17 18 19 20 19 18 17 20 23 24 25 25 23 21 19 16 15 14 13 11 10 9 9 8 8 7 7 9 9 8 8 8 9 9 9 9 10 10 11 12 12 12 13 14 14 14 15 15 15 15 15 15 15 16 16 16 17 17 16 16 16
14 14 12 11 12 10 10 9 9 8 7 10 14 15 11 7 7 12 10 10 12 11 10 11 12 13 14 12 11 11 12 11 12 12 12 16 20 20 20 21 19 18 17 19 22 24 24 23 23 22 19 15 15 13 11 10 9 9 8 8 8 8 8 9 10 10 9 9 9 8 8 8 9 10 11 13 13 13 14 15 15 15 16 16 16 16 16 16 16 16 16 17 18 18 17 16 17
16 14 9 8 8 8 8 6 5 5 6 10 16 16 13 8 5 11 12 13 16 13 12 15 14 14 14 13 11 11 12 12 13 12 11 15 19 19 20 21 20 20 19 18 19 21 21 21 22 21 18 16 15 13 11 10 9 8 7 6 6 7 7 8 10 10 9 9 9 8 8 8 9 9 11 13 14 14 15 15 16 16 17 17 17 17 17 16 16 17 17 17 18 18 17 17 18
15 13 9 9 8 8 7 6 5 6 7 10 14 15 12 8 6 12 15 16 20 17 13 15 15 13 13 14 14 12 12 13 12 12 11 11 14 17 19 21 21 20 19 18 18 19 20 20 20 19 17 15 14 13 11 10 8 8 7 6 6 7 8 9 11 10 9 9 9 8 8 9 9 9 11 13 14 14 15 16 17 17 17 17 17 17 17 17 17 17 18 17 18 18 17 17 18
14 11 10 9 8 7 7 7 7 7 8 10 13 13 9 7 5 14 20 17 18 16 12 12 13 13 13 14 14 13 13 14 12 11 11 10 12 16 19 20 20 20 20 18 18 19 20 19 18 18 16 15 14 13 11 10 9 8 8 8 8 9 9 11 11 10 10 10 9 9 9 10 10 10 11 12 13 14 16 16 17 17 17 17 17 17 18 18 18 18 18 17 17 17 17 17 17
12 10 9 9 7 7 7 7 7 7 8 10 12 9 6 5 3 12 18 17 18 15 12 13 12 11 11 12 13 13 14 14 12 11 11 12 15 17 19 19 19 19 20 18 17 20 20 18 17 16 15 15 14 12 11 10 9 9 9 10 10 10 10 11 11 11 11 10 10 10 11 11 11 11 12 12 13 14 15 16 17 17 17 18 18 17 17 18 18 18 18 17 16 16 17 17 17
10 10 9 9 8 7 5 6 6 3 5 7 8 4 0 2 5 10 13 16 20 18 17 18 15 12 11 11 13 13 13 13 13 12 11 14 17 18 18 18 19 20 20 19 18 19 19 18 17 16 16 15 13 12 12 11 10 10 11 11 12 12 12 12 12 12 12 11 11 12 12 11 11 12 12 13 14 14 15 16 17 17 17 17 18 18 17 17 17 17 17 17 16 15 16 17 17
8 9 11 10 10 8 5 6 3 1 3 6 6 4 4 6 7 10 13 15 18 19 20 19 17 16 15 13 12 13 13 13 13 13 13 16 19 19 18 18 19 20 20 20 19 19 19 18 18 17 16 15 14 13 13 13 13 12 12 12 13 12 12 13 13 13 13 12 12 13 12 12 12 12 13 13 14 15 15 16 17 17 17 17 17 17 17 16 15 16 16 16 16 15 15 17 16
8 9 11 9 11 10 5 5 4 3 5 5 8 10 7 6 5 8 14 16 15 17 20 20 20 20 17 14 13 14 14 15 15 15 14 17 19 19 20 20 20 21 21 21 21 19 18 18 18 17 17 16 15 15 14 14 14 14 13 14 14 13 13 14 13 14 14 13 13 13 13 13 13 13 13 13 14 15 15 16 16 17 17 17 17 17 16 16 15 15 16 16 16 15 15 16 15
12 9 10 8 8 9 6 4 5 7 6 5 9 12 9 7 7 9 13 15 16 17 18 18 20 20 16 14 15 16 16 15 15 14 11 13 18 20 21 22 22 22 22 22 21 20 19 19 18 18 18 17 16 15 15 14 14 15 15 14 14 14 14 14 14 14 15 14 14 14 14 14 13 14 14 14 14 15 15 15 15 16 16 16 16 15 15 15 15 15 15 15 15 14 14 15 15
13 10 11 9 7 7 7 5 5 6 6 5 8 9 7 6 9 14 15 14 17 17 15 15 17 16 13 12 14 15 15 14 14 12 10 12 18 21 21 22 24 23 22 21 20 19 19 19 18 18 18 17 15 14 15 14 14 15 16 15 15 15 15 16 15 15 15 14 14 14 14 14 14 14 14 15 15 15 15 15 15 15 15 15 15 15 14 14 14 14 15 15 15 14 14 14 15
11 9 10 10 7 6 7 7 6 7 6 5 6 6 5 4 6 15 16 13 17 18 15 13 14 15 14 13 13 13 14 15 14 11 11 13 18 22 22 23 24 23 21 21 20 19 19 18 18 18 18 17 15 15 14 15 15 16 16 16 16 16 16 16 15 15 15 15 15 15 14 14 15 14 14 14 15 15 15 15 15 15 15 15 14 14 14 14 14 14 14 14 14 14 14 14 14
11 8 8 10 8 8 8 8 9 7 6 6 6 6 3 1 3 11 12 10 16 19 15 13 14 15 15 14 14 14 13 13 13 12 12 13 17 22 23 23 23 22 21 20 19 19 19 18 18 18 18 16 15 15 15 16 16 17 17 17 17 16 16 15 15 15 15 15 15 15 14 15 15 15 14 14 15 15 15 15 15 15 15 14 14 14 14 13 13 13 13 13 13 14 14 13 14
Wind_Direction
318 318 316 308 305 306 304 293 287 279 263 272 277 280 278 295 287 279 337 38 68 52 19 5 1 6 352 32 77 67 47 51 41 43 82 140 149 142 125 119 120 120 124 130 129 128 130 130 127 126 124 122 120 119 120 120 120 121 121 120 119 117 116 114 112 110 109 109 107 105 103 102 100 99 99 98 97 95 94 93 96 97 96 95 92 90 88 84 77 72 65 59 56 56 60 64 72
319 315 315 306 290 289 308 312 294 288 282 282 281 276 279 286 272 276 29 45 25 20 13 5 20 12 4 42 71 71 59 62 79 89 101 139 137 123 123 122 121 121 125 127 128 132 133 133 133 129 127 125 123 123 123 123 123 124 123 122 121 119 117 117 115 114 113 111 109 107 105 104 102 102 101 100 99 99 98 96 97 97 96 95 92 90 85 80 72 67 62 58 56 57 60 61 65
317 315 318 313 292 268 279 283 275 284 281 277 282 284 288 263 261 344 67 40 8 19 359 342 43 35 18 42 51 70 81 75 92 105 115 137 134 127 131 125 124 124 125 127 130 135 136 138 136 132 129 127 126 126 126 126 125 124 124 122 121 120 120 119 117 117 114 110 108 106 105 105 104 103 102 101 101 102 100 97 97 95 94 92 90 87 83 80 76 69 62 57 56 58 60 61 64
311 310 305 309 310 292 287 278 273 284 277 272 280 288 300 292 294 46 84 57 37 34 355 332 27 60 44 63 71 76 88 87 108 117 120 140 136 133 133 127 127 126 127 128 133 137 139 140 136 132 131 130 129 129 128 127 126 125 124 123 122 121 121 119 118 116 113 112 110 107 106 106 105 103 101 100 100 101 101 102 100 99 99 97 96 91 86 84 78 70 62 57 57 59 63 65 67
303 297 286 285 306 314 304 297 286 281 276 284 285 288 305 306 308 41 77 37 57 44 2 315 359 84 66 68 81 70 89 100 106 114 120 133 136 135 129 129 134 131 129 128 133 138 139 140 137 134 133 132 131 130 130 128 128 127 126 126 124 122 122 120 119 119 117 116 113 110 108 106 105 103 101 99 98 98 102 108 105 106 105 101 106 102 89 88 80 69 63 60 61 64 69 72 71
293 287 269 251 268 307 280 266 269 271 268 271 275 278 287 279 278 74 53 328 340 52 130 294 358 104 90 71 73 62 101 115 99 111 124 133 140 136 133 138 137 129 127 127 134 137 139 142 139 136 134 133 133 132 131 130 130 128 128 128 127 126 125 124 123 123 119 115 110 107 105 103 101 99 98 97 99 103 109 113 107 109 105 97 100 96 90 91 82 71 65 63 66 71 74 77 78
284 290 269 241 245 258 255 262 262 265 260 255 260 266 273 271 270 76 72 319 321 313 162 232 22 105 103 102 81 57 70 115 109 114 126 135 141 139 141 138 126 121 123 125 132 136 140 143 140 137 134 134 134 133 133 132 132 131 129 129 130 130 128 127 124 121 116 111 106 100 98 95 92 90 88 91 98 107 120 127 120 119 114 109 102 84 97 98 85 76 66 68 73 76 79 80 83
265 276 288 278 273 259 262 273 268 268 266 257 256 262 271 273 276 284 95 346 319 305 272 224 198 96 76 92 85 60 67 92 108 118 129 137 145 144 143 131 122 122 123 127 132 135 140 143 140 137 135 135 135 135 136 135 135 134 132 133 134 131 129 127 123 120 115 109 101 95 94 94 92 87 85 88 94 100 106 117 123 128 126 125 110 82 102 105 92 81 70 73 80 79 81 83 84
246 242 254 271 269 269 264 267 267 268 268 264 262 263 264 263 282 315 347 328 301 296 293 269 223 110 97 90 94 86 84 104 118 128 137 141 148 147 144 136 129 126 127 132 134 135 140 142 139 137 138 137 137 137 137 136 137 136 136 138 136 132 129 128 125 122 116 109 102 98 101 104 103 97 93 91 92 96 97 102 109 116 119 118 106 95 110 114 100 85 75 78 84 83 83 83 84
236 231 242 262 266 270 263 263 265 266 266 266 267 266 265 255 202 4 311 296 290 298 295 282 42 105 116 104 105 115 113 125 128 135 142 144 148 148 144 136 131 129 132 136 134 135 139 141 139 140 140 140 140 139 139 138 138 139 141 142 138 133 129 128 127 123 118 114 110 108 110 111 113 108 99 93 89 89 93 100 105 110 113 115 113 111 118 118 106 89 78 82 90 91 87 84 84
245 226 229 252 259 263 265 268 266 269 269 268 268 265 272 259 147 133 258 283 288 292 287 276 106 103 108 101 101 121 129 137 136 140 145 145 149 147 140 131 130 134 137 137 135 138 139 139 140 141 142 143 144 142 142 141 142 143 144 143 138 134 130 129 128 124 119 114 111 111 116 118 117 113 101 94 89 83 84 92 105 113 114 114 117 121 125 122 110 94 81 85 97 100 95 89 86
250 240 237 245 246 255 260 267 268 271 272 276 275 271 289 278 154 149 254 276 285 279 286 271 134 117 110 104 107 135 137 144 143 145 146 146 148 144 137 131 134 138 139 138 137 140 139 139 141 143 145 147 147 145 143 142 144 145 145 143 138 135 131 131 130 124 115 107 103 107 117 121 118 111 101 95 90 81 77 82 93 107 112 113 118 125 129 128 115 98 87 86 101 112 109 99 92
241 241 251 253 255 262 259 263 268 271 273 275 276 286 343 11 120 180 253 256 276 282 302 116 132 117 105 106 120 146 145 150 147 147 148 146 145 142 138 135 138 140 140 139 138 140 141 141 141 144 148 148 148 145 144 145 147 147 145 142 138 136 134 135 132 122 112 100 96 104 111 112 110 102 98 96 90 82 74 75 84 95 106 115 122 132 137 135 125 109 97 90 101 120 125 119 106
233 241 252 259 261 263 265 267 267 269 269 267 279 343 22 76 115 203 244 255 265 279 114 121 125 102 104 116 132 157 154 155 148 148 148 144 143 142 141 140 141 143 142 141 140 141 142 143 143 144 146 147 147 146 145 147 148 147 145 142 139 138 139 139 131 121 109 100 96 99 102 99 94 87 87 88 85 80 76 74 77 84 98 118 130 139 146 143 137 126 112 102 105 124 140 141 125
228 247 248 256 258 256 262 263 266 269 270 274 300 62 90 111 188 223 234 262 283 285 129 125 116 103 125 138 153 169 157 157 150 147 146 144 143 141 143 142 142 146 145 144 142 142 144 144 145 144 144 146 145 145 145 147 149 148 147 145 143 143 144 140 130 120 108 104 101 99 100 92 81 83 83 73 72 72 74 72 69 75 86 115 139 149 157 157 153 143 131 120 114 127 150 161 156
225 248 246 251 252 250 255 255 264 265 268 276 238 124 207 204 202 204 254 279 282 283 118 104 72 110 144 147 154 158 153 154 148 145 145 145 144 142 143 144 146 147 147 148 147 146 146 146 146 145 146 146 143 144 144 146 150 149 149 147 147 148 146 141 131 121 113 105 100 104 106 96 78 79 83 63 60 65 68 68 65 69 73 94 136 160 172 173 171 164 154 143 132 139 156 180 188
220 233 242 246 245 246 249 246 254 259 270 271 178 156 233 220 198 162 235 268 264 297 95 87 61 104 146 141 141 146 148 148 146 147 148 148 145 143 145 148 147 146 150 153 151 148 149 150 148 148 148 147 145 143 143 147 151 148 148 149 150 150 147 144 136 124 119 107 98 104 106 114 93 65 82 64 33 46 60 61 61 67 69 72 95 142 178 191 196 191 184 173 171 180 191 210 210
220 222 234 241 240 242 244 247 257 261 265 255 150 131 289 222 280 200 187 246 251 88 93 92 75 83 107 120 133 141 145 147 152 153 151 153 149 148 151 153 148 150 155 152 151 150 152 155 152 151 149 148 146 142 147 152 150 147 149 151 152 152 151 150 143 130 125 115 100 102 95 119 140 69 96 119 358 42 64 56 56 59 70 68 71 87 116 185 210 214 212 208 214 233 238 234 222
221 226 228 238 241 244 245 247 252 248 258 260 132 124 161 242 295 276 203 239 227 114 102 99 92 95 105 118 134 141 149 153 159 159 156 161 156 152 155 155 152 154 155 149 151 153 153 154 152 151 149 149 145 142 148 148 146 148 149 151 154 156 160 161 153 140 146 139 108 112 102 136 166 152 146 171 202 79 70 61 65 57 69 66 65 75 70 72 207 219 222 226 229 248 258 236 225
216 231 232 237 238 248 252 246 249 251 289 319 40 100 145 268 289 274 246 242 233 158 124 113 112 120 125 131 139 144 156 160 162 163 162 166 158 154 156 157 154 151 149 148 152 157 154 152 153 152 149 147 141 140 145 145 147 151 154 159 163 170 176 171 164 152 174 173 144 164 185 181 175 163 168 174 183 178 111 70 88 83 77 63 54 69 63 52 25 220 216 229 234 249 257 235 230
206 223 234 242 236 240 247 246 252 267 325 306 317 337 317 286 263 258 254 239 242 182 137 131 132 135 141 145 147 152 160 165 170 170 167 169 161 157 158 156 153 148 147 149 152 156 152 149 150 147 146 145 139 142 148 149 153 156 161 166 167 177 184 176 175 176 184 175 159 187 193 183 180 166 177 181 189 201 189 225 207 140 100 72 56 12 324 340 329 264 221 230 244 249 250 259 260
211 223 230 244 245 242 248 252 254 251 266 281 290 289 289 286 261 247 248 243 297 155 138 137 139 141 148 151 156 160 165 171 174 173 171 171 164 158 155 149 147 144 146 150 148 148 145 144 144 144 148 147 148 155 150 151 159 158 157 163 172 182 185 175 176 184 190 175 165 197 197 190 192 181 190 199 203 202 201 231 245 248 249 250 255 293 295 271 283 287 252 248 290 277 249 260 267
219 229 226 237 248 255 269 281 278 270 265 253 269 270 274 281 265 251 242 96 61 112 139 141 140 141 149 156 164 166 170 173 172 178 176 170 163 155 150 146 145 146 146 144 139 139 142 142 141 147 153 151 158 156 144 151 160 156 152 162 178 180 175 173 173 178 187 176 170 192 209 212 203 188 200 210 212 213 213 227 239 253 260 266 249 273 294 257 260 281 259 255 276 282 263 262 270
221 234 231 233 242 249 262 269 144 156 251 251 256 257 254 257 260 257 173 101 94 114 131 137 138 142 151 160 171 171 170 170 171 179 173 163 160 153 149 146 145 146 141 136 135 139 140 140 145 150 151 151 150 136 139 155 152 151 154 163 175 171 168 173 172 177 186 181 176 190 212 226 219 201 197 180 201 218 214 230 245 251 273 342 259 269 306 277 272 297 283 273 280 286 280 266 268
220 232 239 235 239 238 240 254 196 176 231 246 248 246 240 240 253 256 131 116 112 116 126 133 138 147 158 166 172 174 169 167 166 171 167 154 154 151 147 144 139 136 136 137 138 139 140 143 150 148 145 143 135 133 144 151 144 151 161 168 169 164 171 176 175 181 185 183 182 185 196 213 216 243 240 201 232 236 238 334 283 308 352 9 358 297 312 314 310 316 311 308 307 307 303 288 277
217 226 240 243 244 236 225 233 220 213 227 227 236 239 238 238 242 251 103 131 132 131 136 138 148 156 165 170 174 179 170 163 161 163 159 148 148 144 140 139 135 134 138 141 138 137 142 146 144 139 140 140 139 144 144 142 147 155 163 172 164 162 173 179 181 182 178 181 185 186 193 210 199 184 207 211 223 236 271 30 59 37 20 9 350 328 337 333 326 327 325 328 322 322 327 321 313
221 221 229 241 248 240 228 233 222 221 230 225 232 238 239 236 232 225 98 145 146 149 150 149 160 165 169 172 178 185 169 163 160 157 151 146 149 141 138 139 134 132 133 137 134 132 137 138 137 138 141 142 141 139 133 140 147 155 165 171 168 169 170 173 183 184 182 182 181 191 195 201 201 183 182 183 179 179 157 108 98 86 71 63 4 319 357 354 342 339 323 320 314 320 331 323 325
233 230 227 235 242 237 228 235 231 223 226 224 232 244 240 233 234 196 143 148 157 174 172 160 164 170 174 179 180 176 163 159 150 148 146 142 150 145 141 138 128 125 128 131 129 128 132 134 137 140 137 133 132 133 134 141 144 158 173 170 172 175 169 173 186 187 182 172 164 186 183 171 211 176 131 127 114 103 106 99 84 84 85 63 26 325 4 9 347 336 319 313 306 308 311 303 311
235 230 232 235 237 235 225 227 228 223 225 217 223 247 240 232 233 169 145 150 141 163 178 161 164 176 179 178 167 126 70 83 77 98 134 129 143 136 128 127 121 121 128 128 125 128 130 131 133 128 123 127 142 143 137 145 152 163 168 167 175 181 178 178 181 177 152 145 164 164 150 120 53 58 62 81 87 74 75 75 64 70 73 49 9 352 18 17 347 333 335 334 321 313 312 318 316
234 218 221 237 236 231 221 223 224 221 225 209 211 239 235 232 222 154 141 148 142 132 160 164 161 171 171 137 91 48 26 31 23 6 43 54 76 93 104 118 124 129 129 124 123 126 127 129 128 114 114 137 151 139 121 141 156 160 162 168 175 181 190 176 163 163 143 164 174 144 134 98 67 49 41 59 75 63 43 47 50 58 61 46 3 358 12 10 349 338 349 354 337 327 324 330 328
231 224 221 229 238 232 216 216 219 218 219 208 210 229 243 233 176 129 132 141 138 122 39 10 40 40 27 39 47 45 33 37 50 59 62 64 82 102 114 108 115 125 120 117 118 126 132 128 119 110 121 145 149 138 135 142 145 152 160 173 176 177 188 173 157 161 159 175 151 111 97 78 69 61 45 48 59 47 25 29 45 35 20 16 1 1 359 353 348 346 355 353 340 335 326 327 333
217 221 225 218 231 240 220 210 211 214 212 210 215 225 245 202 99 77 56 73 75 74 52 22 29 40 34 36 47 61 55 53 67 74 79 91 108 123 118 88 90 111 115 114 121 135 130 110 108 118 134 149 149 143 144 139 139 150 169 188 182 166 166 174 200 165 138 133 112 85 65 64 56 58 49 41 56 44 27 29 38 23 4 7 7 6 2 352 350 353 354 345 339 340 332 331 333
209 214 224 216 220 236 232 209 200 208 212 209 213 225 215 107 83 60 48 60 67 74 75 68 69 71 78 92 91 87 88 90 87 95 104 111 124 135 121 96 98 115 119 119 132 137 119 105 118 131 142 154 151 141 133 129 140 150 191 197 151 116 122 93 79 106 100 119 120 85 70 67 54 55 49 39 50 43 33 30 28 18 7 11 11 14 11 357 357 360 354 344 344 342 334 332 333
207 209 220 225 220 223 236 217 191 196 213 210 206 221 192 87 82 81 84 85 89 101 111 123 131 115 128 137 126 123 117 113 110 128 134 130 136 142 130 119 120 124 124 129 138 132 118 119 129 135 142 146 140 132 123 127 141 151 176 137 87 88 83 66 58 106 122 127 102 79 68 64 53 51 47 39 36 41 41 30 25 22 16 16 17 22 14 1 4 5 355 349 348 343 336 331 330
204 201 209 228 226 218 229 226 183 184 209 214 205 209 136 81 82 96 118 127 123 137 133 128 139 127 134 139 136 136 122 116 121 138 144 136 135 135 129 130 131 126 123 128 128 120 121 127 132 134 129 124 122 118 114 117 127 137 123 91 71 65 66 61 164 138 104 79 74 68 65 63 57 52 48 45 41 43 43 33 32 30 23 19 19 24 18 6 5 5 358 353 350 344 337 333 328
206 206 207 216 227 219 228 229 181 180 204 210 212 203 130 100 108 122 141 144 133 134 125 129 153 145 142 146 144 141 129 128 130 133 142 138 134 134 133 136 135 127 125 125 120 120 125 126 132 128 111 115 121 112 103 94 94 99 87 82 80 69 59 327 126 94 76 66 66 62 59 56 55 53 47 49 51 48 44 38 37 36 31 29 25 25 23 12 9 10 4 356 352 344 340 341 338
212 210 209 213 227 221 225 228 180 175 201 210 216 189 115 118 137 150 153 137 129 133 139 155 162 153 153 155 148 140 135 140 135 132 137 133 130 133 133 134 131 127 129 128 125 129 129 124 128 124 115 124 125 113 104 99 101 104 85 87 95 97 104 298 66 72 66 60 57 57 57 51 50 53 46 45 50 48 43 35 32 32 31 35 33 30 30 25 21 19 12 6 1 353 348 351 352
225 216 212 209 225 226 223 223 176 171 197 210 203 130 102 130 141 143 150 143 143 146 154 162 159 154 161 158 144 133 131 137 136 132 132 129 130 135 133 133 133 132 133 132 128 129 128 127 127 127 131 133 126 116 113 120 136 138 128 116 96 93 98 71 64 67 65 60 53 50 55 52 48 50 47 41 41 45 43 34 28 26 26 34 38 34 33 33 29 23 18 15 12 5 2 4 5
234 226 219 207 218 228 225 219 186 169 187 215 186 122 105 135 124 133 157 155 147 148 153 151 149 157 169 153 133 132 139 137 137 134 133 133 134 135 132 133 132 130 132 131 129 130 133 134 132 138 142 133 121 113 112 117 114 111 121 111 91 82 81 84 77 72 66 61 57 50 48 51 47 46 46 41 38 41 44 41 35 28 28 34 35 33 34 33 27 24 23 20 14 9 6 8 13
237 236 226 212 210 220 228 217 191 160 173 223 165 107 105 130 120 141 153 149 141 137 134 134 148 161 171 154 141 149 148 137 137 136 134 135 134 131 129 131 129 126 128 130 133 134 138 138 134 136 134 120 114 111 112 113 109 109 101 84 89 106 113 97 86 74 62 50 47 44 39 42 44 43 41 38 36 34 35 41 42 33 32 37 35 31 34 33 28 27 26 25 21 15 2 359 8
230 236 232 222 207 215 232 211 172 150 184 211 142 97 105 152 145 151 145 144 147 143 139 148 167 159 156 171 162 156 145 140 141 137 138 140 138 136 134 135 133 129 131 133 137 136 135 136 133 128 119 111 114 117 120 124 125 121 107 103 146 147 127 101 87 73 60 49 43 42 40 37 37 38 38 37 34 31 28 32 38 33 29 37 37 31 31 32 30 27 25 26 27 21 3 354 1
223 228 232 237 217 214 228 204 160 170 200 190 167 146 156 170 175 164 157 160 165 170 163 165 175 164 168 185 176 154 142 144 142 137 144 144 140 141 137 136 134 130 131 134 136 135 132 132 129 123 115 114 118 120 122 128 129 122 125 162 188 157 117 86 74 68 63 61 56 54 53 44 38 36 36 35 32 32 32 29 32 31 28 34 35 32 32 31 28 25 26 29 29 24 14 3 1
219 216 228 244 241 225 226 202 165 194 209 171 184 217 182 173 192 176 168 174 174 173 170 178 182 172 171 168 174 170 145 141 142 140 144 144 142 139 132 133 135 129 127 130 132 129 126 123 119 116 114 113 114 113 112 115 112 109 125 161 171 132 106 85 75 75 73 71 64 56 47 41 39 37 34 32 31 34 37 35 35 37 38 37 35 37 36 33 32 28 30 34 31 28 24 14 2
214 206 221 239 247 243 230 200 172 197 212 185 191 215 224 192 197 183 169 174 177 171 179 193 189 177 165 143 166 189 145 139 147 143 143 147 144 137 132 132 132 127 124 124 124 121 116 111 106 104 105 101 98 98 97 107 114 110 116 121 110 106 103 99 100 94 86 81 74 62 45 36 40 41 38 37 36 37 42 42 41 45 48 44 40 42 41 39 39 37 36 37 36 35 29 21 16
214 203 214 230 241 254 250 216 198 204 212 214 197 199 227 216 187 178 168 173 183 178 185 190 178 170 154 136 183 195 145 143 148 142 146 149 140 134 134 132 129 126 123 121 121 119 115 109 103 100 99 93 90 88 83 92 112 114 114 110 106 111 121 127 125 111 99 88 77 66 55 49 50 48 44 43 40 40 45 46 44 48 52 49 45 45 45 43 43 44 44 41 42 42 36 34 31
219 213 210 220 230 248 264 233 205 207 213 232 211 189 218 240 177 167 169 181 186 181 184 179 161 164 161 163 191 179 147 147 144 141 149 142 133 134 135 131 128 123 117 118 118 118 115 111 107 103 99 95 95 93 88 92 102 107 115 122 127 139 147 145 139 128 118 103 82 69 64 62 57 49 45 46 44 44 48 48 47 49 53 53 48 47 48 45 45 48 48 45 45 45 43 42 37
216 227 213 210 222 236 262 240 200 202 213 234 227 200 204 236 184 166 177 185 179 174 175 166 155 165 172 177 182 159 145 148 141 143 146 132 130 136 136 131 128 123 119 118 116 116 114 110 107 104 101 98 98 99 100 98 95 101 117 130 139 150 150 143 137 129 119 107 94 81 76 73 65 55 48 47 47 48 50 51 52 52 54 54 49 49 51 48 47 50 51 48 46 46 45 42 39
214 232 210 191 212 220 244 244 199 206 217 227 233 217 205 225 199 169 177 178 174 176 173 163 161 168 171 169 165 153 146 143 141 144 140 130 133 138 136 132 131 130 126 122 118 116 114 111 109 107 106 105 105 109 110 106 103 109 121 131 131 136 137 130 121 113 109 104 100 96 92 84 72 62 54 50 49 50 52 52 54 53 53 53 50 51 52 51 50 51 52 50 45 44 44 41 39
216 227 201 187 201 204 215 219 203 223 229 219 228 228 217 227 213 177 175 170 170 178 174 162 164 168 166 163 159 153 145 140 140 141 138 137 140 139 136 134 135 133 129 128 124 119 114 113 113 112 111 109 110 112 113 115 119 122 129 128 120 120 118 114 110 106 105 105 104 104 99 90 78 67 59 54 51 52 53 53 55 54 53 53 53 51 51 52 51 49 51 50 46 44 43 42 40
211 212 197 195 195 191 200 206 205 220 230 220 225 233 224 231 214 169 167 164 161 163 156 156 168 167 161 162 158 150 146 143 141 143 144 143 141 139 138 138 137 134 131 131 127 119 115 116 117 117 117 116 117 118 121 124 122 123 126 121 118 118 109 106 109 111 111 110 111 108 99 91 83 72 65 59 56 56 56 56 57 56 55 55 55 53 52 53 52 50 50 49 47 44 42 43 41
205 198 199 206 203 194 195 205 206 210 225 217 214 226 230 232 186 147 156 155 144 139 144 162 171 162 156 161 160 150 143 145 146 147 147 144 142 142 142 141 139 135 130 127 122 117 118 122 123 122 120 120 121 120 121 121 115 113 113 112 114 115 110 108 109 112 116 118 116 107 98 92 84 76 70 66 64 61 59 59 59 58 57 55 55 54 53 53 52 51 50 49 48 44 42 42 40
199 190 201 213 213 197 184 213 217 209 236 221 201 200 128 161 144 142 155 152 143 144 159 169 160 153 164 170 165 154 145 148 149 148 149 145 144 145 144 144 140 134 130 129 128 126 128 131 128 123 120 119 120 119 118 116 113 108 106 108 113 116 118 118 114 114 119 119 112 103 96 92 86 79 74 69 67 65 62 60 58 58 57 55 54 54 52 52 52 50 48 48 47 45 43 41 39
188 187 207 216 217 205 179 209 214 45 248 222 200 188 113 116 147 160 167 161 154 152 157 162 156 159 175 176 167 157 147 150 150 150 155 151 149 149 147 145 142 137 136 137 137 135 134 132 127 123 122 122 123 121 119 117 115 113 111 113 118 121 123 122 120 120 122 117 108 100 95 90 85 80 75 70 68 65 62 60 58 57 56 56 55 53 52 52 52 50 47 46 46 44 45 42 39
194 187 204 213 220 215 188 197 194 196 232 219 208 207 174 155 177 177 171 163 157 155 157 162 162 165 174 171 160 153 146 149 150 150 154 153 152 151 148 148 147 144 142 140 138 136 134 131 128 127 127 127 126 123 122 122 121 120 120 120 122 123 124 124 125 125 122 115 106 100 95 89 84 80 77 73 69 66 64 61 59 57 55 55 54 52 52 51 51 51 48 46 46 45 46 44 40
213 192 197 213 223 207 183 198 202 198 217 227 217 212 196 186 183 173 176 168 156 159 164 165 163 165 170 166 157 149 145 147 148 149 152 153 154 153 152 152 148 144 142 140 139 138 134 130 129 130 128 127 126 126 127 127 127 126 125 124 122 122 123 123 123 122 117 110 103 99 94 89 85 81 78 75 71 68 65 62 60 58 55 54 54 53 52 51 50 50 48 46 46 45 46 44 41
216 197 195 217 232 209 191 194 205 203 209 219 219 210 204 211 183 168 180 174 154 159 168 162 160 163 163 161 156 148 147 150 148 149 153 155 156 155 153 149 146 144 142 139 138 137 133 130 131 131 128 126 128 129 129 129 128 127 125 122 120 119 120 119 118 117 111 104 101 98 93 89 86 82 79 76 73 69 66 63 60 58 57 54 53 53 52 51 50 50 48 47 45 45 46 44 41
208 204 196 207 218 218 207 195 200 208 207 214 223 211 205 234 181 163 173 169 150 158 171 159 154 159 154 154 154 147 150 153 147 150 156 156 156 154 150 146 144 144 142 139 137 134 133 133 132 130 127 127 129 128 128 127 126 124 122 120 119 118 117 116 114 110 106 103 100 97 94 91 87 83 80 77 73 69 65 63 61 59 57 55 53 52 52 52 51 50 48 47 46 45 45 44 42
196 215 208 201 204 212 212 206 207 207 207 216 225 219 201 6 129 151 165 168 148 153 164 152 149 158 154 152 153 149 151 151 149 154 156 153 154 152 149 146 145 144 143 143 140 135 134 135 133 131 129 130 131 129 128 127 124 123 122 121 119 118 117 115 111 107 104 101 99 96 94 91 87 83 80 77 73 70 66 63 61 58 56 54 53 52 52 51 51 50 49 47 45 45 43 43 42
Height
772 772 769 769 765 765 761 760 782 778 775 790 777 772 758 739 742 741 743 742 745 748 740 742 741 744 751 759 766 771 773 778 785 789 802 793 783 788 786 789 792 793 796 797 799 801 802 803 803 804 805 806 807 807 809 809 810 811 812 814 815 816 817 818 818 819 820 820 821 821 821 821 822 822 822 822 822 823 823 823 823 823 823 824 824 824 824 824 824 825 824 824 824 823 823 822 822
773 773 769 768 764 769 767 762 790 790 783 796 778 769 753 737 745 747 749 749 749 744 736 739 742 746 748 753 759 769 778 776 775 780 785 782 784 789 787 791 792 794 797 798 800 801 803 803 803 805 806 807 808 808 810 810 811 812 813 814 815 817 817 819 819 820 821 821 821 821 822 822 823 823 823 823 823 823 823 824 824 824 824 824 825 825 825 825 825 825 825 825 825 825 824 824 824
774 773 770 770 764 765 767 769 792 797 796 800 782 762 746 744 748 745 746 746 743 737 737 739 744 750 752 763 766 774 783 775 773 776 780 782 785 788 791 792 793 796 797 800 802 802 804 804 804 805 806 808 808 809 810 811 812 813 814 815 816 817 818 819 820 821 821 822 822 822 823 823 824 824 824 824 824 824 824 825 825 825 825 825 826 826 826 826 826 826 826 826 826 826 825 825 825
774 774 771 770 770 769 774 782 788 793 798 794 784 763 747 748 742 738 740 740 737 736 742 742 749 751 755 773 770 773 782 775 773 774 780 783 784 789 791 793 795 798 799 801 802 803 804 804 805 805 807 808 809 810 811 812 813 814 814 815 816 817 819 819 820 821 822 823 823 823 823 824 824 824 825 825 825 825 825 826 826 826 826 826 826 827 827 827 827 827 827 827 827 827 826 826 826
775 774 773 772 779 778 780 789 787 791 795 787 783 767 750 745 738 735 734 734 733 737 744 745 755 754 757 769 767 777 781 775 773 772 779 784 786 790 791 794 796 797 800 801 802 803 804 805 805 806 808 809 810 811 811 813 813 814 815 816 817 818 819 820 821 822 823 823 823 824 824 825 825 825 826 826 826 826 826 826 826 827 827 827 827 827 827 827 828 828 828 828 828 827 827 827 827
775 773 771 770 775 774 785 797 792 792 783 775 779 766 751 742 735 735 735 735 730 733 740 745 754 759 768 768 767 776 774 775 777 775 779 784 788 790 792 794 795 798 800 801 803 803 804 805 805 806 808 809 810 811 812 813 814 815 816 817 818 819 820 820 821 822 823 824 824 824 825 825 826 826 826 826 826 826 826 826 827 827 827 827 827 828 828 828 828 829 829 828 828 828 828 828 828
776 776 772 773 774 773 792 797 790 788 771 764 769 760 750 740 730 732 739 742 736 733 736 743 746 758 774 770 772 774 770 774 775 778 782 785 789 790 792 794 795 798 800 802 803 804 805 805 806 807 808 809 811 812 813 813 815 815 816 817 818 819 820 821 822 823 823 824 824 825 825 826 826 826 826 826 826 827 827 827 827 827 827 828 828 828 828 829 829 829 829 829 829 828 829 828 828
776 779 775 782 786 781 792 792 783 779 766 756 753 750 745 735 727 728 736 743 745 739 736 741 739 760 777 769 780 779 771 775 775 781 783 786 790 790 793 794 796 798 801 802 803 805 805 806 806 807 808 810 811 812 813 814 815 816 817 818 819 820 820 822 822 823 824 824 825 825 826 826 826 827 827 827 827 826 827 827 827 827 827 828 828 828 828 829 829 830 830 830 830 829 829 829 829
774 778 778 787 793 790 791 790 782 771 762 753 746 742 736 730 729 730 735 741 745 741 738 737 735 763 781 775 785 779 774 779 778 783 785 788 790 791 793 794 796 797 800 801 804 806 806 807 807 808 809 810 812 813 814 814 815 816 818 818 819 820 821 822 823 824 824 825 825 826 826 827 827 827 827 827 827 827 827 827 827 827 827 828 828 828 829 829 830 830 830 830 830 830 830 830 830
773 775 781 789 793 795 793 788 779 768 758 750 743 737 729 727 731 735 739 744 743 742 738 730 736 762 776 779 785 778 777 780 779 785 787 789 790 792 794 794 796 797 799 801 804 806 807 808 808 809 810 811 812 813 814 815 816 817 818 819 820 821 822 823 823 824 825 825 826 826 827 827 827 827 828 827 827 827 827 827 827 827 827 828 828 829 829 830 830 830 831 831 831 831 830 830 830
779 774 777 791 798 800 796 787 777 766 754 745 739 731 725 722 730 738 740 744 740 743 738 730 747 764 771 779 783 779 778 781 782 785 787 790 791 793 794 795 797 797 799 801 803 806 807 809 809 810 810 811 812 813 815 815 816 817 818 819 821 821 823 823 824 825 825 826 826 827 827 827 828 828 828 828 828 828 828 828 827 828 827 828 828 829 829 830 831 831 831 831 831 831 831 831 830
785 779 777 793 797 793 788 784 776 765 754 748 741 728 722 717 727 740 741 744 741 744 738 734 751 759 772 784 783 779 779 783 784 785 787 790 791 792 794 796 797 799 800 801 803 805 807 809 810 811 811 812 813 814 815 816 818 818 819 820 821 822 823 824 825 825 826 826 827 827 827 828 828 828 828 828 828 828 828 828 828 828 828 828 828 829 830 830 831 831 831 831 831 831 831 831 831
782 780 782 790 785 783 780 778 772 766 760 751 741 727 721 722 732 738 739 743 743 747 741 738 745 749 772 785 781 780 780 783 784 785 787 789 791 793 795 796 798 799 800 801 802 804 807 809 810 811 812 813 814 815 816 817 818 819 820 821 822 823 824 825 825 826 826 827 827 827 828 828 828 828 829 829 829 829 829 828 828 828 828 828 828 829 830 830 831 831 831 831 831 831 831 832 831
776 774 780 787 779 778 776 774 770 769 765 745 734 728 725 729 733 734 738 746 744 743 739 736 740 752 773 782 785 784 781 782 783 786 787 790 792 793 795 797 799 800 801 802 803 805 807 809 810 811 812 814 815 816 817 818 819 820 821 822 823 824 825 825 826 827 827 828 828 828 829 829 829 829 829 829 829 829 829 829 828 828 829 829 829 829 830 830 831 831 831 831 831 832 832 832 832
770 769 775 783 781 779 774 773 768 768 762 740 732 732 731 731 730 734 738 745 743 729 730 736 736 753 770 777 786 782 779 782 782 786 787 790 792 793 796 796 799 800 801 803 803 805 807 810 810 812 813 814 815 816 817 818 820 821 821 823 823 824 825 826 827 827 828 829 829 829 829 829 830 830 830 830 830 830 830 829 829 829 829 829 829 830 830 830 831 831 831 831 832 832 832 832 832
763 767 776 782 782 781 774 768 766 768 759 737 730 733 739 734 727 735 733 734 740 726 730 743 738 749 762 765 773 773 777 782 782 786 787 790 792 794 796 796 799 800 801 803 804 806 807 809 810 812 814 814 816 817 818 819 820 821 822 823 824 825 826 827 828 828 829 829 830 830 830 830 830 830 830 831 830 830 830 830 830 829 829 829 829 830 830 831 831 831 832 832 832 832 832 832 832
759 769 781 782 780 778 770 765 764 763 751 737 732 733 742 739 727 730 727 727 738 735 738 746 742 745 753 756 763 769 776 781 783 786 787 789 790 793 796 796 798 799 801 803 804 806 807 809 810 812 814 815 816 817 819 819 821 822 823 824 825 826 826 828 828 829 830 830 831 830 830 830 831 831 831 831 831 831 830 830 830 830 829 829 829 830 830 831 831 832 832 832 832 832 832 832 832
763 774 782 780 775 769 760 757 753 749 744 738 736 735 740 743 735 727 729 735 737 744 747 747 748 749 752 756 763 771 776 780 782 784 785 787 788 791 794 795 797 799 801 803 804 806 807 809 810 812 814 815 816 817 819 819 821 822 823 824 825 826 827 828 828 829 830 830 831 831 831 831 832 832 832 832 832 831 831 830 830 830 830 830 830 830 830 831 831 832 832 832 832 833 832 832 832
765 771 777 775 767 757 747 746 742 738 738 735 734 736 739 742 737 728 737 745 740 752 757 752 758 760 759 763 767 773 775 779 781 781 783 784 786 789 791 793 796 798 800 802 805 806 808 809 810 812 814 815 816 818 819 819 821 822 824 825 825 827 827 828 829 829 830 831 831 831 832 832 833 833 832 833 832 831 831 831 830 830 830 830 830 830 831 831 831 832 832 833 833 833 833 833 833
761 766 774 767 756 750 740 737 733 728 730 733 735 735 738 738 734 732 740 745 741 751 758 757 765 767 766 767 769 773 775 778 779 779 781 782 784 787 789 792 794 797 799 802 804 806 808 809 811 812 814 815 817 818 819 820 821 823 824 825 826 827 827 828 828 829 830 832 832 832 833 833 833 833 832 832 832 831 831 831 831 830 830 830 830 830 830 831 831 832 832 833 833 833 833 833 833
758 761 768 757 747 748 739 730 725 723 729 735 736 736 740 736 732 735 739 746 745 744 748 751 759 763 765 767 768 771 774 776 778 778 779 780 783 785 788 790 793 796 798 801 804 806 808 809 811 813 815 816 817 818 819 820 822 823 824 825 826 826 827 827 828 830 831 832 833 833 833 833 833 833 833 832 831 831 831 831 831 831 831 830 830 830 831 831 832 832 833 833 833 834 834 834 834
756 756 756 749 743 744 733 723 723 725 731 738 740 741 741 734 733 735 737 748 749 741 741 744 749 756 760 764 766 769 772 774 776 777 777 779 781 784 787 789 792 795 798 801 803 806 808 810 812 813 815 816 817 817 818 820 822 823 824 825 826 826 827 828 830 831 831 833 834 833 833 833 833 833 833 832 832 831 830 831 831 831 831 831 831 831 831 832 832 833 833 833 833 834 834 834 835
756 754 747 745 741 740 730 723 727 730 737 744 744 740 737 738 740 734 735 746 744 736 737 739 745 750 755 760 763 766 768 771 773 775 776 778 780 783 786 788 791 794 797 801 803 806 808 810 812 813 815 816 817 818 819 821 822 823 824 826 826 827 828 829 830 831 832 833 834 834 832 832 833 833 833 832 831 831 830 831 831 832 831 832 832 832 832 833 833 834 834 834 834 834 834 835 836
753 753 744 741 738 737 732 727 730 736 743 744 740 738 739 746 746 735 738 745 739 736 738 739 743 747 752 758 762 763 764 767 770 773 775 777 780 783 785 788 791 794 797 800 803 806 808 810 812 813 815 817 818 819 821 822 823 824 825 826 826 827 828 829 830 831 833 833 835 835 833 832 831 832 833 833 831 831 831 831 831 832 832 833 832 833 833 834 835 835 835 836 835 835 835 835 835
748 750 743 738 734 732 730 729 733 739 743 740 739 741 742 743 742 738 742 743 739 740 742 745 747 748 753 757 761 762 762 764 768 772 774 777 780 783 785 789 792 795 797 800 803 806 809 811 812 814 816 818 819 821 822 823 824 825 826 827 827 828 829 830 831 831 832 833 834 835 835 834 831 831 832 832 831 830 830 831 831 831 832 833 833 834 834 834 835 835 836 836 836 836 836 836 836
743 744 741 737 733 729 729 732 736 739 740 739 743 745 742 737 738 745 745 741 739 740 744 750 752 754 755 757 760 760 761 763 766 770 774 777 781 783 786 790 793 796 799 801 804 807 809 811 813 815 817 820 821 823 824 824 825 827 827 828 828 829 830 830 831 831 831 833 834 834 835 835 834 835 835 833 832 831 830 831 831 832 833 834 834 833 834 834 834 834 834 835 835 835 836 836 835
734 736 738 737 734 729 731 734 735 738 739 738 744 746 741 734 737 750 748 738 738 741 746 750 753 756 755 757 760 760 761 764 766 770 774 778 781 784 788 792 795 797 800 802 805 807 810 812 815 817 820 822 823 824 825 825 827 828 829 829 829 829 830 831 831 832 832 832 833 834 834 835 836 837 837 835 834 834 833 833 833 833 833 833 833 832 833 833 834 834 833 833 833 832 832 832 832
730 732 737 736 733 732 732 736 735 737 740 736 741 744 739 735 737 745 743 737 738 742 745 748 753 757 757 758 760 761 763 767 770 773 776 780 783 787 790 793 796 799 802 804 807 809 812 814 817 820 822 824 824 824 825 827 828 829 830 830 830 830 831 832 832 832 832 833 833 833 834 835 835 835 835 835 834 834 834 833 833 833 832 832 832 832 832 833 833 833 832 832 832 830 830 829 829
730 732 743 742 737 737 734 736 735 737 740 733 738 749 746 740 737 736 737 737 740 745 748 750 755 758 759 760 763 768 772 774 779 784 786 788 792 794 795 796 798 801 805 807 809 812 815 817 820 822 824 825 825 825 826 828 829 830 831 831 832 832 832 833 833 833 833 833 833 833 834 835 835 835 835 834 833 833 833 833 832 832 832 832 832 832 832 832 832 832 832 831 831 830 830 829 829
732 733 744 747 746 743 734 733 733 735 736 728 738 761 756 740 734 734 736 738 744 752 756 756 760 764 766 768 773 782 786 787 791 797 799 800 803 804 803 802 802 804 807 809 811 814 815 818 820 823 826 826 825 827 828 829 830 831 831 832 833 833 834 834 834 834 834 834 834 834 835 835 835 835 834 834 833 833 833 833 832 832 832 831 831 831 830 830 830 831 830 830 830 830 830 829 829
736 739 743 749 755 746 731 729 734 738 734 725 739 762 755 737 735 738 738 740 748 762 771 772 775 780 782 783 787 794 798 797 799 802 803 805 807 806 806 805 805 806 808 810 812 813 815 817 820 824 827 826 825 826 828 829 831 832 833 833 834 835 835 835 835 835 835 835 835 835 836 836 835 835 834 834 833 833 833 833 832 831 831 830 830 830 830 829 829 830 830 830 830 830 829 828 828
738 749 752 749 753 746 729 725 730 737 734 725 739 758 753 742 745 750 750 752 760 773 783 787 791 793 794 795 795 798 802 801 800 803 804 805 805 805 805 804 805 808 810 811 812 813 815 817 820 823 825 824 823 826 827 829 831 833 835 835 835 837 836 836 837 837 836 836 837 837 836 835 835 835 834 834 833 833 832 832 832 831 830 830 830 830 830 829 829 830 830 830 830 830 830 829 828
739 747 754 748 749 748 734 723 721 729 733 729 737 749 750 751 758 763 763 764 769 776 781 787 794 794 795 798 796 799 804 804 802 802 802 801 801 804 805 804 806 809 811 812 812 814 816 818 820 822 823 822 824 826 828 829 832 834 836 836 837 838 838 837 838 838 838 838 838 838 836 835 835 834 834 834 833 833 832 832 832 831 831 830 830 830 830 830 830 830 830 830 829 829 829 828 827
743 743 749 744 742 744 739 726 716 722 731 731 735 739 747 760 766 766 765 765 770 775 778 783 789 791 793 795 796 800 804 805 803 801 800 797 797 802 805 805 808 810 811 811 812 814 815 818 819 820 822 823 825 828 828 830 832 834 836 837 838 839 838 837 838 841 842 841 839 837 836 835 835 834 834 834 833 833 833 833 832 831 831 830 830 830 830 830 830 830 830 830 830 829 828 828 827
744 744 748 745 737 736 736 726 716 721 730 732 734 738 753 770 770 766 765 763 766 771 775 783 787 788 791 795 798 801 802 803 803 801 800 798 797 801 803 804 807 809 810 811 812 813 815 817 819 820 822 824 826 827 828 830 832 834 837 838 840 840 840 840 843 845 844 841 838 837 836 834 834 834 834 834 834 834 834 833 833 831 831 830 830 830 830 830 830 830 830 830 829 829 829 828 828
735 737 740 743 737 731 727 718 710 716 729 733 732 736 757 776 773 768 767 762 763 769 776 783 786 786 790 794 797 798 800 801 801 800 800 798 797 798 799 800 803 806 809 811 812 814 815 817 819 821 823 824 826 826 827 829 831 833 836 838 840 840 843 846 847 845 842 840 839 837 836 835 834 834 834 834 834 834 834 834 833 832 831 830 830 830 830 830 830 830 830 830 830 829 829 829 828
726 729 732 735 734 727 718 710 704 709 727 733 726 737 758 771 770 766 766 766 767 773 779 781 783 787 790 792 794 796 799 800 799 800 799 797 797 798 800 800 800 803 806 809 811 813 815 817 818 820 822 824 825 826 828 830 831 833 836 838 839 840 845 849 847 843 841 840 839 838 836 836 834 834 835 835 835 835 835 834 833 833 832 831 831 830 830 830 830 830 830 830 830 829 829 829 829
721 723 726 729 729 723 711 704 701 705 725 730 724 747 766 765 767 767 766 769 771 774 779 780 782 787 789 789 792 796 798 798 798 799 798 797 797 799 800 800 799 800 802 806 809 812 815 816 817 818 821 823 825 827 829 831 833 834 837 839 840 841 844 848 845 843 842 841 840 838 837 836 835 835 836 836 836 836 835 835 834 833 832 832 831 831 831 831 830 830 830 829 829 829 830 830 829
722 719 721 725 723 719 709 700 697 703 723 727 725 755 772 763 766 770 767 766 767 772 775 778 782 786 789 788 792 796 797 796 797 797 798 797 797 799 800 800 799 799 801 805 808 811 814 815 817 819 821 824 826 828 829 831 833 834 837 839 839 842 845 846 844 843 842 841 840 839 837 836 836 836 836 836 836 836 836 836 835 834 833 832 832 832 831 831 831 830 830 830 830 830 830 830 829
724 718 718 721 716 718 716 703 695 701 717 723 729 758 772 766 767 767 766 766 766 770 774 779 782 786 789 789 790 793 793 794 795 796 797 797 798 799 800 801 801 801 802 805 808 810 813 815 817 819 821 824 826 827 828 830 832 834 836 838 840 843 846 845 844 843 842 841 840 839 839 838 838 837 837 837 837 837 837 837 836 835 834 833 833 832 831 831 831 831 831 831 831 830 830 830 830
725 717 715 715 710 712 711 700 696 706 716 718 732 765 775 767 770 770 768 769 769 771 776 782 783 785 791 792 790 789 788 791 793 795 797 797 799 799 800 802 802 803 803 805 808 810 813 815 817 819 821 823 825 827 828 830 832 834 835 840 844 846 846 845 844 844 843 842 842 841 841 840 839 839 838 838 838 838 838 837 837 836 835 834 833 833 832 832 832 832 832 832 832 832 832 831 831
726 716 708 706 704 705 703 699 705 723 734 722 730 770 783 769 767 770 769 771 772 772 775 782 783 783 788 792 792 788 787 790 791 794 796 797 799 800 800 802 803 804 804 806 808 810 812 815 817 819 821 823 825 827 830 832 833 834 835 842 847 846 845 845 845 845 844 844 843 843 842 841 840 839 839 839 839 839 839 838 837 837 836 835 834 834 833 833 833 833 833 832 833 833 833 833 832
726 712 704 704 703 703 701 700 713 734 741 729 729 757 776 774 768 764 766 770 770 772 777 781 782 781 783 789 793 791 788 790 791 794 796 797 799 800 801 803 805 805 806 808 809 810 813 815 818 818 819 821 824 826 829 832 834 835 837 843 846 845 845 845 845 845 845 845 845 844 843 842 841 840 840 840 840 840 840 839 838 837 836 836 835 834 834 834 834 833 833 833 833 834 834 834 833
720 705 703 708 706 704 699 701 717 727 729 732 731 738 758 773 768 758 762 770 770 774 780 782 782 781 781 785 790 790 789 790 792 794 796 798 799 801 803 804 806 807 808 809 810 812 814 815 817 816 818 820 823 825 827 830 834 836 839 842 843 844 845 845 846 846 846 846 846 845 844 843 842 842 842 842 842 842 840 840 838 837 837 836 836 835 835 835 835 834 834 834 834 835 835 836 835
710 700 702 706 705 705 699 700 714 718 727 742 734 731 754 765 756 754 761 768 772 774 775 777 782 784 783 787 792 792 790 790 792 794 795 798 800 803 805 805 807 809 810 811 811 813 815 815 816 817 819 822 824 825 827 829 834 836 839 841 842 844 845 846 847 847 847 846 846 845 844 844 844 843 844 844 843 843 841 840 839 838 837 837 837 836 836 836 835 835 835 835 835 836 837 837 837
703 696 700 702 702 703 702 704 710 717 736 747 731 730 756 761 749 757 767 768 769 769 767 770 779 785 787 790 794 792 789 788 791 794 795 798 801 804 806 807 809 810 811 812 812 813 815 816 818 819 821 824 825 826 828 832 835 837 839 841 843 844 845 846 846 846 846 846 846 845 845 845 845 845 845 845 844 843 842 841 840 839 838 838 838 838 837 837 837 836 837 837 837 837 838 838 838
699 699 701 705 706 706 708 703 705 729 751 746 727 724 746 759 750 751 759 758 756 759 763 767 773 780 785 787 787 785 784 787 790 794 796 799 803 805 807 809 810 812 813 813 814 814 816 817 819 821 823 825 827 828 831 834 836 838 840 842 843 844 845 845 845 845 845 845 845 846 846 846 846 847 847 846 845 843 842 841 840 840 839 839 839 838 838 838 838 838 838 838 838 839 839 839 839
702 705 706 717 722 719 721 714 717 749 761 742 723 716 734 756 751 742 744 744 746 752 757 764 770 775 778 780 781 779 782 787 791 795 798 800 804 806 808 810 811 813 814 814 815 815 816 818 820 823 826 828 830 832 835 836 838 840 841 843 843 843 844 844 844 844 844 845 846 846 847 848 848 848 847 846 845 844 843 842 841 841 840 840 840 840 840 840 839 839 839 839 840 840 840 841 841
707 706 709 730 741 739 745 744 743 756 751 730 720 718 731 742 735 731 737 737 741 746 749 757 765 770 773 774 777 778 781 787 792 796 799 801 804 806 808 810 812 813 814 815 816 816 818 820 822 825 828 831 833 835 837 839 840 841 842 842 843 843 843 843 843 844 845 846 847 848 848 849 849 849 848 847 846 845 844 843 842 842 841 841 841 841 841 841 841 840 840 841 841 842 842 842 842
708 707 713 733 744 754 765 759 754 755 742 723 716 720 731 732 721 720 727 732 739 744 749 756 760 764 769 770 773 777 780 787 793 796 799 802 803 806 808 810 812 813 814 815 816 818 820 822 825 827 830 832 834 836 838 839 841 841 842 842 842 842 842 843 844 845 846 847 848 849 850 850 850 849 849 848 847 846 845 844 844 843 843 843 842 842 842 842 842 842 842 843 843 843 844 843 843
705 701 709 724 729 745 760 754 751 753 740 724 721 729 737 736 728 719 718 726 737 747 753 756 760 763 766 769 772 776 781 787 793 796 799 802 803 806 808 809 812 813 814 816 817 819 821 824 827 828 830 832 834 836 838 839 840 840 841 841 842 843 843 844 845 847 848 849 850 850 850 850 850 850 849 848 848 847 847 846 845 845 845 844 844 843 843 843 843 844 844 844 845 845 845 845 845
704 696 710 721 712 718 736 737 734 740 742 732 727 732 732 728 726 719 718 725 733 747 755 755 761 767 769 772 773 776 781 786 791 796 799 801 803 805 807 809 811 812 814 816 818 821 823 826 828 829 831 833 835 837 838 839 840 840 841 842 843 844 845 846 847 848 850 850 851 851 851 851 850 850 850 849 849 848 848 847 847 846 846 846 845 845 845 845 845 846 846 846 846 846 846 846 846
703 705 715 710 695 701 725 735 727 735 752 742 726 733 734 731 731 722 720 727 730 741 753 755 761 767 769 771 772 775 779 784 790 795 797 800 802 805 807 808 810 813 815 817 819 822 824 826 828 830 832 834 836 838 839 840 841 842 843 843 845 846 847 848 849 850 850 851 851 851 851 851 850 850 850 850 850 849 849 849 848 848 847 847 847 846 847 847 847 847 848 847 847 847 847 847 847
701 712 709 698 695 698 714 737 742 747 759 744 725 732 739 741 743 728 720 729 732 737 748 753 757 763 765 767 770 774 777 782 789 794 796 799 801 804 806 808 811 813 815 817 820 822 824 826 829 831 833 835 837 838 840 841 842 843 844 844 846 846 847 848 849 850 850 851 851 851 851 851 851 851 851 851 851 850 850 850 850 849 849 848 848 848 849 849 849 849 849 849 849 849 849 849 849
691 699 695 698 713 714 716 735 746 752 761 749 729 726 728 732 736 729 723 728 734 736 741 747 751 757 761 763 768 774 778 783 788 793 797 798 801 803 805 808 810 813 815 817 819 822 824 827 829 831 833 835 837 839 840 842 842 843 844 844 846 846 847 848 849 850 850 850 851 851 851 851 851 851 852 852 852 852 852 852 851 851 850 850 850 850 851 851 851 851 851 851 851 851 850 850 850
685 690 692 696 706 711 714 722 729 740 755 753 740 732 727 718 715 720 721 720 729 736 738 743 750 754 758 762 767 774 779 783 787 792 796 798 800 803 804 807 810 812 815 816 818 821 823 826 829 831 833 835 837 839 840 841 842 842 843 844 845 846 847 848 849 850 850 850 851 851 851 851 852 852 853 853 853 853 853 853 852 852 852 852 852 852 852 853 853 852 852 852 852 852 852 852 852
695 699 702 702 700 700 706 711 713 724 742 749 747 743 730 708 699 709 714 713 722 732 734 740 747 751 756 761 767 774 779 783 786 791 795 797 799 802 804 807 809 811 814 816 818 820 823 826 828 830 832 834 836 838 839 840 841 842 843 844 845 846 847 848 849 849 850 850 851 851 852 852 853 853 854 854 854 854 854 854 853 853 853 854 854 854 854 854 854 854 854 854 854 854 854 853 853
698 702 700 700 702 704 716 723 710 706 724 735 739 743 732 709 699 704 709 711 718 726 730 737 744 747 753 759 764 772 778 782 786 790 793 796 798 801 804 806 809 811 813 815 817 820 823 825 827 829 831 833 835 837 838 839 840 841 842 843 845 846 847 848 849 849 850 851 852 852 853 853 854 854 855 855 855 855 855 855 854 855 855 855 855 855 856 856 856 856 856 855 855 855 855 855 854